Location: Freemans Gardens
(41.6414°N, 83.6077°W)
Time: 20:44:14
(UTC+00:00)

Cosmos 1400 Rocket - Pass Details

Date: 29 October 2020
Orbit: 521 x 568 km, 81.2° (Epoch: 25 November)

Event Time Altitude Azimuth Distance (km) Brightness Sun altitude
Rises 23:27:09 0° 192° (SSW) 2,750 6.7 -10.8°
Reaches altitude 10° 23:29:20 10° 194° (SSW) 1,855 5.8 -11.2°
Maximum altitude 23:33:26 74° 281° (W) 589 3.1 -12.0°
Drops below altitude 10° 23:37:31 10° 6° (N) 1,850 5.4 -12.7°
Sets 23:39:42 0° 8° (N) 2,743 6.2 -13.1°
